{"data":{"norad_id":64247,"epoch":"2026-09-20T02:08:53.859264Z","epoch_age_seconds":173031,"freshness":"STALE","line1":"1 64247U 25119Q   26263.08951226  .00008414  00000+0  31489-3 0  9997","line2":"2 64247  42.9987 288.8899 0000595 256.8595 103.2190 15.27583333 73876","mean_motion":15.27583333,"eccentricity":5.95e-5,"inclination_deg":42.9987,"raan_deg":288.8899,"arg_perigee_deg":256.8595,"mean_anomaly_deg":103.219,"bstar":0.00031489,"rev_number":7387,"period_min":94.266543035135,"perigee_km":482.63087587787,"apogee_km":483.44735583565,"semimajor_km":6861.1761158568,"source":"CELESTRAK","updated_at":"2026-09-21T09:00:35.279200Z"}}